Preview of NWS' New Version of Forecast
This preview is not operational and should not be used for support decisions.
Latest weather observations around

Fort Myers, Page Field (KFMY)

Using International System of Units (Switch to English Units)
Date/ Time (EDT) Wind (kph) Vis. (km) Weather Sky Cond. Temp (°C) Rel. Humidity Wind Chill (°C) Heat Index (°C) Pressure Precip. (cm)
Air Dwpt 6 hour Altimeter (hPa) Sea level (hPa) 1 hr 3 hr 6 hr
Max Min
Sep 20 17:53 ENE 21 16.09 Light Rain FEW032 BKN050 OVC075 28 21     65%   31 1015.9 1016.1 0    
Sep 20 16:53 ENE 28 16.09 Cloudy FEW034 BKN065 OVC085 28 21     65%   31 1016.3 1016.2   0  
Sep 20 15:53 E 24 16.09 Partly Cloudy FEW029 SCT055 SCT085 30 21     57%   32 1015.9 1016 0    
Sep 20 14:53 ENE 11 16.09 Mostly Cloudy SCT030 SCT041 BKN080 28 23     77%   31 1015.9 1016.2 0    
Sep 20 13:53 ENE 26 16.09 Mostly Cloudy SCT030 SCT038 BKN047 31 22     59%   34 1016.3 1016.3 0   0
Sep 20 12:53 E 26 16.09 Light Rain FEW038 SCT050 BKN100 31 21     55%   33 1016.6 1016.9 0    
Sep 20 11:53 ENE 24 16.09 Mostly Cloudy SCT034 BKN100 30 21     59%   33 1017.3 1017.6      
Sep 20 11:41   4.83 Mostly Cloudy SCT034 BKN049 BKN100 30 21     59%   33 1017.3        
Sep 20 11:35   0.4 Mostly Cloudy SCT032 BKN045 BKN100 29 21     61%   32 1017.3        
Sep 20 11:22 Calm 1.61 Clear   28 21     65%   31 1017.3        
Notice The following observation data may not be complete
Sep 20 10:53     Clear            %     1017.3 1017.6      
Sep 20 09:53 ENE 21 16.09 Mostly Cloudy BKN090 26 21     74%   28 1016.9 1017.1      
Sep 20 08:53 ENE 13 16.09 Clear CLR 24 21     82%   25 1016.6 1016.8      
Sep 20 07:53 NE 13 16.09 Clear CLR 23 21     87%   23 1016.3 1016.3      
Sep 20 06:53 NE 11 16.09 Clear CLR 22 20     87%   23 1015.6 1015.9      
Sep 20 05:53 ENE 9 16.09 Clear CLR 23 20     84%   23 1014.9 1015.1      
Sep 20 04:53 ENE 13 16.09 Clear CLR 23 20     84%   23 1014.6 1014.8      
Sep 20 03:53 ENE 13 16.09 Clear CLR 23 20     84%   23 1014.6 1014.6      
Sep 20 02:53 ENE 11 16.09 Mostly Cloudy BKN090 23 20     84%   23 1014.9 1015.2      
Sep 20 01:53 ENE 15 16.09 Clear CLR 23 20     84%   23 1015.6 1015.7      
Sep 20 00:53 NE 17 16.09 Clear CLR 23 19     81%   23 1015.6 1015.6      
Sep 19 23:53 NE 18 16.09 Clear CLR 23 19     76%   24 1015.9 1016      
Sep 19 22:53 NE 15 16.09 Clear CLR 24 18     69%   24 1016.3 1016.4      
Sep 19 21:53 ENE 18 16.09 Clear CLR 24 18     69%   25 1015.9 1016      
Sep 19 20:53 ENE 18 16.09 Mostly Cloudy BKN090 25 19     69%   25 1014.9 1015.1      
Sep 19 19:53 ENE 18 16.09 Mostly Cloudy BKN090 26 18     62%   26 1014.6 1014.6     0
Sep 19 18:53 ENE 21 16.09 Clear CLR 27 19     61%   28 1013.9 1013.9      
Sep 19 17:53 ENE 21 16.09 Mostly Cloudy BKN095 28 18     56%   29 1013.6 1013.6 0    
Sep 19 16:53 ENE 22 16.09 Mostly Clear FEW044 FEW050 30 21     57%   32 1013.2 1013.2 0 0  
Sep 19 15:53 E 21 16.09 Cloudy SCT050 BKN060 OVC070 28 19     60%   29 1013.6 1013.8      
Sep 19 14:53 ENE 26 16.09 Mostly Cloudy FEW047 SCT080 BKN100 29 19     55%   31 1013.9 1014.1      
Sep 19 13:53 ENE 28 16.09 Clear CLR 31 18     46%   31 1014.2 1014.3      
Sep 19 12:53 ENE 18 16.09 Partly Cloudy FEW049 FEW060 SCT070 30 18     50%   31 1014.9 1014.9      
Sep 19 11:53 NE 26 16.09 Mostly Cloudy SCT042 BKN049 29 19     55%   30 1015.2 1015.5      
Sep 19 10:53 ENE 18 16.09 Clear CLR 28 19     58%   29 1015.6 1015.6      
Sep 19 09:53 NE 17 16.09 Clear CLR 27 19     62%   29 1015.2 1015.5      
Sep 19 08:53 ENE 13 16.09 Clear CLR 25 19     71%   25 1015.2 1015.2      
Sep 19 07:53 NE 13 16.09 Clear CLR 23 20     82%   24 1014.6 1014.8      
Sep 19 06:53 NE 11 16.09 Clear CLR 23 21     85%   24 1014.2 1014.4      
Sep 19 05:53 ENE 11 16.09 Clear CLR 24 21     84%   25 1013.9 1014      
Sep 19 04:53 ENE 9 16.09 Mostly Clear FEW095 24 21     84%   25 1013.6 1013.8      
Sep 19 03:53 ENE 11 16.09 Clear CLR 24 22     88%   25 1013.9 1013.9      
Sep 19 02:53 ENE 13 16.09 Clear CLR 24 21     82%   25 1013.9 1014.2      
Sep 19 01:53 NE 9 16.09 Clear CLR 25 22     82%   26 1014.6 1014.5     0
Sep 19 00:53 NE 13 16.09 Clear CLR 25 22     84%   26 1014.6 1014.8      
Sep 18 23:53 ENE 11 16.09 Partly Cloudy SCT095 26 22     82%   26 1014.9 1015.2      
Sep 18 22:53 ENE 8 16.09 Clear CLR 26 23     85%   26 1014.9 1015   0  
Sep 18 21:53 ENE 9 16.09 Clear CLR 26 23     82%   28 1014.2 1014.3      
Sep 18 20:53 NE 8 16.09 Clear CLR 26 23     82%   28 1013.9 1013.9 0    
Sep 18 20:12 N 17 16.09 Light Rain FEW080 SCT110 26 23     85%   28 1013.9   0    
Sep 18 19:53 NNE 15 12.87 Rain FEW065 SCT110 27 23     82%   29 1013.6 1013.7 0   1
Sep 18 19:32 NE 11 16.09 Clear CLR 27 23     79%   30 1013.2        
Sep 18 18:53 NE 8 16.09 Clear CLR 28 23     77%   31 1012.9 1013.1      
Sep 18 17:53 NE 8 16.09 Mostly Cloudy FEW060 BKN110 27 23     82%   29 1012.9 1012.9 0    
Sep 18 17:41 NE 9 16.09 Light Rain FEW048 BKN110 26 23     85%   28 1012.9   0    
Sep 18 17:23 N 17 16.09 Light Rain SCT050 BKN065 OVC100 27 23     79%   29 1012.5   0    
Sep 18 17:07 SE 9 4.83 Thunderstorms and Heavy Rain SCT036 BKN050 OVC085 26 23     85%   28 1012.9   0    
Sep 18 17:00 ESE 13 4.02 Thunderstorms and Heavy Rain FEW029 BKN065 OVC085 26 23     82%   28 1013.2   0    
Sep 18 16:53 SE 15 2.41 Thunderstorms and Heavy Rain FEW020 BKN050 OVC070 26 22     79%   26 1013.2 1013.2 1 1  
Notice The following observation data may not be complete
Sep 18 16:44 SE 22 1.21 Thunderstorms and Heavy Rain FEW012 SCT036 BKN050   23      %     1012.9   0    
Sep 18 16:40   11.27 Thunderstorms and Rain FEW036 SCT050 BKN060 28 23     72%   32 1012.9   0    
Sep 18 16:26   16.09 Light Rain SCT050 SCT060 31 22     59%   34 1012.2   0    
Sep 18 15:53 NE 18 16.09 Partly Cloudy FEW060 FEW070 SCT085 33 21     50%   36 1012.5 1012.6      
Sep 18 14:53 NE 15 16.09 Clear CLR 33 22     52%   37 1013.2 1013.4 0    
Sep 18 13:53 ENE 17 16.09 Mostly Cloudy FEW055 SCT070 BKN090 33 22     51%   37 1013.9 1013.9      
Sep 18 12:53 NNE 21 16.09 Mostly Cloudy FEW037 FEW070 BKN095 32 23     59%   36 1014.2 1014.3      
Notice The following observation data may not be complete
Sep 18 11:53   16.09 Mostly Clear FEW031          %              
Sep 18 09:53 NE 9 16.09 Clear CLR 28 23     74%   32 1014.6 1014.8      
Sep 18 08:53 NE 13 16.09 Clear CLR 26 23     85%   28 1014.6 1014.8      
Sep 18 07:53 N 9 16.09 Clear CLR 25 23     88%   26 1014.2 1014.5      
Sep 18 06:53 N 8 16.09 Clear CLR 24 22     88%   25 1013.9 1013.9      
Sep 18 05:53 NE 8 16.09 Clear CLR 24 22     90%   25 1013.6 1013.6      
Sep 18 04:53 NE 5 16.09 Clear CLR 24 22     88%   25 1013.2 1013.3      
Sep 18 03:53 ENE 5 16.09 Clear CLR 24 22     88%   25 1013.2 1013.3      
Sep 18 02:53 Calm 16.09 Clear CLR 25 22     82%   26 1013.6 1013.6      
Sep 18 01:53 ENE 9 16.09 Clear CLR 26 22     79%   26 1013.6 1013.8      
Sep 18 00:53 ENE 9 16.09 Clear CLR 27 22     76%   29 1013.9 1013.9      
Sep 17 23:53 NE 9 16.09 Clear CLR 27 23     77%   30 1014.2 1014.2      
Sep 17 22:53 N 11 16.09 Clear   28 22     70%   31 1014.2 1014.3      
Sep 17 21:53 N 13 16.09 Clear CLR 29 23     72%   33 1013.6 1013.7      
Sep 17 20:53 NW 17 16.09 Clear CLR 29 23     70%   34 1012.9 1013.1      
Sep 17 19:53 NW 17 16.09 Mostly Clear FEW070 30 23     65%   34 1012.5 1012.5      
Sep 17 18:53 WNW 21 16.09 Clear CLR 31 24     68%   36 1012.2 1012.2      
Sep 17 17:53 NW 21 16.09 Clear CLR 32 23     59%   36 1011.9 1012.1      
May 14 11:53 SSW 9 8.05 Light Rain and Fog/Mist SCT100 OVC120 24 22     90%   25 1013.6 1013.8 0    
May 14 05:53 SE 8 12.87 Light Rain SCT006 BKN011 OVC030 22 21     96%   22 1013.6 1013.6 0    
May 13 13:07 E 13 14.48 Clear   24 22     88%   25 1016.9   0    
Notice The following observation data may not be complete
May 12 19:53   16.09 Clear CLR          %              
May 12 16:53 ENE 21 16.09 Clear CLR 28 17     51%   29 1017.3 1017.3      
May 12 12:53 NE 11 12.87 Cloudy OVC100 27 18     58%   28 1020 1020      
May 12 05:53 Calm 11.27 Clear CLR 22 17     71%   22 1018.3 1018.4 0    
May 12 02:53 Calm 11.27 Clear CLR 23 16     62%   23 1018.3 1018.4      
May 12 01:53 Calm 9.66 Haze CLR 24 14     55%   24 1018.6 1018.9      
May 12 00:53 S 5 11.27 Clear CLR 25 14     50%   25 1019.3 1019.5      
Jun 11 18:29 E 18 14.48 Clear   24 22     88%   25 1018.3   0    
Jun 11 17:32 5 9.66 Cloudy SCT048 BKN090 OVC110 28 24     77%   32 1017.6   0    
Jun 11 15:53 SE 15 16.09 Clear   32 25     66%   39 1018.3 1018.5      
Jun 11 06:44 E 8 9.66 Fog/Mist SCT005 25 25     100%   26 1018.6        
Jun 10 22:53 E 8 16.09 Clear   24 24     100%   25 1018.6 1018.7      
Jun 10 00:18 Calm 16.09 Light Rain BKN024 OVC034 26 24     90%   28 1014.6   0    
Jun 09 21:53 SSW 5 16.09 Clear CLR 28 22     69%   30 1013.9 1014.2      
Jun 09 07:53 ENE 15 12.87 Mostly Cloudy BKN006 24 23     96%   25 1012.5 1012.7      
Notice The following observation data may not be complete
Jun 06 14:53     Clear            %     1008.1 1008.4 0    
Notice The following observation data may not be complete
Jun 06 13:43   16.09 Cloudy FEW011 OVC017          %         0    
Jun 05 16:53 NNW 11 16.09 Cloudy FEW010 BKN041 OVC110 24 24     97%   25 1012.5 1012.7 0 1